Location: Peterborough
(44.3091°N, 78.3197°W)
Time: 16:50:15
(UTC-04:00)

Transit 2A Rocket - Pass Details

Date: 23 March 2023
Orbit: 584 x 914 km, 66.7° (Epoch: 04 June)

Event Time Altitude Azimuth Distance (km) Brightness Sun altitude
Rises 15:50:37 0° 286° (WNW) 3,394 8.7 35.5°
Reaches altitude 10° 15:55:04 10° 318° (NW) 2,531 7.8 34.9°
Maximum altitude 15:57:02 12° 338° (NNW) 2,440 7.6 34.6°
Drops below altitude 10° 15:59:02 10° 357° (N) 2,578 7.5 34.3°
Sets 16:03:43 0° 29° (NNE) 3,552 8.0 33.7°
